MAPLE11 YMAV-YMAV

Flight info

Callsign MAPLE11
Flight time 0h 21m
Altitude 10000
Route YMAV YMAV
Aircraft F35/L-V/N

Departure

Time 2026-04-17 11:57
Airport Melbourne Avalon International Airport (YMAV)

Arrival

Time 2026-04-17 12:19
Airport Melbourne Avalon International Airport (YMAV)
Time Latitude Longitude Altitude Speed Heading
2026-04-17 11:43 -38.02911 144.47512 39 ft 0 kts 98°
2026-04-17 11:53 -38.02918 144.47514 39 ft 2 kts 191°
2026-04-17 11:53 -38.02941 144.47467 39 ft 12 kts 254°
2026-04-17 11:53 -38.02909 144.47360 39 ft 18 kts 353°
2026-04-17 11:53 -38.02806 144.47326 39 ft 12 kts 302°
2026-04-17 11:54 -38.02791 144.47244 39 ft 8 kts 280°
2026-04-17 11:54 -38.02756 144.47116 38 ft 19 kts 290°
2026-04-17 11:54 -38.02738 144.47031 37 ft 3 kts 278°
2026-04-17 11:54 -38.02730 144.46953 37 ft 3 kts 266°
2026-04-17 11:55 -38.02738 144.46940 37 ft 4 kts 198°
2026-04-17 11:55 -38.02763 144.46935 36 ft 0 kts 187°
2026-04-17 11:56 -38.02774 144.46933 36 ft 0 kts 187°
2026-04-17 11:57 -38.02829 144.46924 36 ft 68 kts 187°
2026-04-17 11:57 -38.04152 144.46697 88 ft 276 kts 187°
2026-04-17 11:57 -38.06532 144.46300 836 ft 331 kts 187°
2026-04-17 11:57 -38.09042 144.45892 3312 ft 437 kts 187°
2026-04-17 11:58 -38.12476 144.45327 6963 ft 549 kts 187°
2026-04-17 11:58 -38.14829 144.44939 9556 ft 454 kts 186°
2026-04-17 11:58 -38.17506 144.44719 12272 ft 344 kts 185°
2026-04-17 11:58 -38.19790 144.44420 12587 ft 339 kts 187°
2026-04-17 11:59 -38.22258 144.44055 13017 ft 366 kts 187°
2026-04-17 11:59 -38.24770 144.43683 13458 ft 360 kts 187°
2026-04-17 11:59 -38.27243 144.43323 13882 ft 354 kts 187°
2026-04-17 11:59 -38.29662 144.42975 14300 ft 348 kts 187°
2026-04-17 12:00 -38.32192 144.42611 13212 ft 386 kts 187°
2026-04-17 12:00 -38.34938 144.42218 12247 ft 416 kts 187°
2026-04-17 12:00 -38.37775 144.41806 12524 ft 403 kts 187°
2026-04-17 12:00 -38.40910 144.42132 12890 ft 552 kts 166°
2026-04-17 12:01 -38.44810 144.44191 13089 ft 591 kts 147°
2026-04-17 12:01 -38.47420 144.47446 13194 ft 477 kts 122°
2026-04-17 12:01 -38.48289 144.51379 10150 ft 576 kts 95°
2026-04-17 12:01 -38.48624 144.57013 7236 ft 617 kts 96°
2026-04-17 12:02 -38.49149 144.61834 6497 ft 497 kts 98°
2026-04-17 12:02 -38.49617 144.65879 5950 ft 430 kts 96°
2026-04-17 12:02 -38.49689 144.69460 5510 ft 382 kts 90°
2026-04-17 12:02 -38.49758 144.72680 5070 ft 353 kts 92°
2026-04-17 12:03 -38.49910 144.75664 4868 ft 322 kts 95°
2026-04-17 12:03 -38.50139 144.78377 4686 ft 295 kts 97°
2026-04-17 12:03 -38.50383 144.80867 4499 ft 271 kts 97°
2026-04-17 12:03 -38.50541 144.83340 3410 ft 330 kts 89°
2026-04-17 12:04 -38.50452 144.86597 3259 ft 355 kts 88°
2026-04-17 12:04 -38.50379 144.89565 2446 ft 333 kts 88°
2026-04-17 12:04 -38.50083 144.93510 1814 ft 551 kts 76°
2026-04-17 12:04 -38.49143 144.97983 1744 ft 468 kts 75°
2026-04-17 12:05 -38.48365 145.01649 1975 ft 394 kts 75°
2026-04-17 12:05 -38.48260 145.04824 1709 ft 344 kts 112°
2026-04-17 12:05 -38.49629 145.07255 961 ft 461 kts 133°
2026-04-17 12:05 -38.51808 145.10322 1573 ft 433 kts 122°
2026-04-17 12:06 -38.52760 145.13550 2007 ft 361 kts 97°
2026-04-17 12:06 -38.52924 145.16324 3110 ft 273 kts 91°
2026-04-17 12:06 -38.52861 145.18450 3739 ft 210 kts 85°
2026-04-17 12:06 -38.52720 145.20287 3380 ft 209 kts 84°
2026-04-17 12:07 -38.52567 145.22143 2975 ft 211 kts 84°
2026-04-17 12:07 -38.52417 145.23897 2920 ft 189 kts 76°
2026-04-17 12:07 -38.51324 145.26145 3067 ft 421 kts 46°
2026-04-17 12:07 -38.48471 145.28949 3505 ft 599 kts 30°
2026-04-17 12:08 -38.44592 145.31162 3943 ft 561 kts 18°
2026-04-17 12:08 -38.41041 145.32525 4744 ft 516 kts 14°
2026-04-17 12:08 -38.37645 145.33571 5906 ft 501 kts 13°
2026-04-17 12:08 -38.34139 145.34607 7054 ft 531 kts 13°
2026-04-17 12:09 -38.30470 145.35689 8232 ft 548 kts 13°
2026-04-17 12:09 -38.26683 145.36499 9442 ft 556 kts
2026-04-17 12:09 -38.22807 145.36592 10759 ft 557 kts 356°
2026-04-17 12:09 -38.18963 145.36013 12084 ft 559 kts 351°
2026-04-17 12:10 -38.15009 145.35107 12527 ft 622 kts 348°
2026-04-17 12:10 -38.11054 145.34054 12905 ft 578 kts 347°
2026-04-17 12:10 -38.07071 145.32970 12590 ft 603 kts 347°
2026-04-17 12:10 -38.02891 145.31829 12064 ft 589 kts 347°
2026-04-17 12:11 -37.99255 145.30277 11461 ft 594 kts 333°
2026-04-17 12:11 -37.95513 145.27607 11219 ft 605 kts 329°
2026-04-17 12:11 -37.92008 145.24817 12152 ft 587 kts 326°
2026-04-17 12:12 -37.88643 145.15732 13526 ft 592 kts 287°
2026-04-17 12:12 -37.87403 145.10735 13190 ft 594 kts 287°
2026-04-17 12:12 -37.86140 145.05777 13135 ft 591 kts 289°
2026-04-17 12:12 -37.84815 145.00899 12991 ft 590 kts 290°
2026-04-17 12:13 -37.83487 144.95948 12063 ft 597 kts 287°
2026-04-17 12:13 -37.82160 144.90964 11261 ft 599 kts 289°
2026-04-17 12:13 -37.80790 144.86001 11355 ft 593 kts 289°
2026-04-17 12:13 -37.79414 144.81049 11928 ft 606 kts 289°
2026-04-17 12:14 -37.77962 144.75815 12225 ft 672 kts 289°
2026-04-17 12:14 -37.76497 144.70545 8568 ft 569 kts 285°
2026-04-17 12:14 -37.76815 144.66025 6193 ft 492 kts 242°
2026-04-17 12:14 -37.79193 144.63941 5378 ft 405 kts 192°
2026-04-17 12:15 -37.81861 144.63192 4628 ft 382 kts 195°
2026-04-17 12:15 -37.83828 144.61460 4233 ft 369 kts 236°
2026-04-17 12:15 -37.85573 144.58203 4467 ft 444 kts 236°
2026-04-17 12:15 -37.87141 144.55223 4947 ft 366 kts 237°
2026-04-17 12:16 -37.88441 144.52757 5778 ft 309 kts 234°
2026-04-17 12:16 -37.89809 144.50804 5905 ft 285 kts 225°
2026-04-17 12:16 -37.91296 144.49282 5813 ft 266 kts 210°
2026-04-17 12:16 -37.92997 144.48462 4507 ft 275 kts 195°
2026-04-17 12:17 -37.94864 144.48043 3559 ft 261 kts 186°
2026-04-17 12:17 -37.96487 144.47852 3045 ft 209 kts 185°
2026-04-17 12:17 -37.97800 144.47695 2493 ft 171 kts 186°
2026-04-17 12:17 -37.98852 144.47547 1954 ft 137 kts 187°
2026-04-17 12:18 -37.99700 144.47412 1315 ft 116 kts 188°
2026-04-17 12:18 -38.00709 144.47258 798 ft 208 kts 187°
2026-04-17 12:18 -38.01997 144.47055 283 ft 167 kts 187°
2026-04-17 12:18 -38.02945 144.46898 38 ft 121 kts 187°
2026-04-17 12:19 -38.03280 144.46848 40 ft 0 kts 146°
2026-04-17 12:19 -38.03280 144.46850 40 ft 2 kts 124°
2026-04-17 12:19 -38.03263 144.46871 40 ft 7 kts 50°
2026-04-17 12:19 -38.03243 144.47048 40 ft 30 kts 94°
2026-04-17 12:20 -38.03157 144.47272 39 ft 29 kts 39°
2026-04-17 12:20 -38.02983 144.47356 39 ft 26 kts 32°
2026-04-17 12:20 -38.02900 144.47497 39 ft 10 kts 95°